"Pseudo-MPEC" for C0MJVF2

Created 2019 May 24 15:07:07 UT using Find_Orb

Click here for an explanation of pseudo-MPECs

 
 Astrometry: 
     C0MJVF2  C2019 05 14.24620 15 39 37.56 -24 52 59.9    ~5E7M 19.0 GVNEOCPG96
     C0MJVF2  C2019 05 14.25188 15 39 35.20 -24 52 43.0    ~5E7M 18.8 GVNEOCPG96
     C0MJVF2  C2019 05 14.25758 15 39 32.85 -24 52 26.4    ~5E7M 19.4 GVNEOCPG96
     C0MJVF2  C2019 05 14.26326 15 39 30.39 -24 52 09.2    ~5E7M       VNEOCPG96
     C0MJVF2  C2019 05 14.31029115 39 10.61 -24 49 49.6    ~5E8M 19.2 GVNEOCPH01
     C0MJVF2  C2019 05 14.31355815 39 09.28 -24 49 39.7    ~5E8M 19.0 GVNEOCPH01
     C0MJVF2  C2019 05 14.32564715 39 04.32 -24 49 03.0    ~5E8M 18.9 GVNEOCPH01
     C0MJVF2  C2019 05 14.33028115 39 02.42 -24 48 48.9    ~5E8M 19.4 GVNEOCPH01
     C0MJVF2  C2019 05 14.37622 15 38 44.18 -24 46 27.4    ~5E9M       VNEOCPI52
     C0MJVF2  C2019 05 14.37657 15 38 44.02 -24 46 26.7    ~5E9M 19.3 GVNEOCPI52
     C0MJVF2  C2019 05 14.37693 15 38 43.90 -24 46 25.4    ~5E9M 19.6 GVNEOCPI52
     C0MJVF2 KC2019 05 14D9,_%L/rn=-,em8Q$B+Fs)uh/@3I`o!*.aCh4,`\IAstrometryGE23
     C0MJVF2 KC2019 05 14hhnZ?r%v.nq4+ttO$b7!P%-ka18)SacMYf,R:FZe4e_.?4f'%g2*E23
     C0MJVF2 KC2019 05 14N#k9oNGV8tjXBttB.9Vsx8f*slK+PS.vmXJnhhXtHTnvv5,OgJASE23
     C0MJVF2  C2019 05 15.24934 15 34 06.19 -24 07 27.2    ~5F6b 19.8 GVNEOCPI52
     C0MJVF2  C2019 05 15.25046 15 34 05.78 -24 07 24.7    ~5F6b 19.6 GVNEOCPI52
     C0MJVF2  C2019 05 15.25159 15 34 05.45 -24 07 22.3    ~5F6b 20.1 GVNEOCPI52
     C0MJVF2  C2019 05 15.25272 15 34 05.08 -24 07 19.5    ~5F6b 19.4 GVNEOCPI52
     C0MJVF2  C2019 05 16.32386 15 29 32.24 -23 28 57.8    ~5G8b       VNEOCPG96
     C0MJVF2  C2019 05 16.32490 15 29 31.95 -23 28 55.0    ~5G8b 20.4 GVNEOCPG96
     C0MJVF2  C2019 05 16.32542 15 29 31.81 -23 28 54.3    ~5G8b       VNEOCPG96
     C0MJVF2 KC2019 05 16.;y3F*g/4AP(/GJBArvjHMF]3vJ^qWF21Z3;GvA5=K=LrgHn9y^aL01
     C0MJVF2 KC2019 05 16L^x94Q,YxrjX++Y'nxR1K$RMrEL0`Ro^l):CisAbSG#2O*M6kRnwL01
     C0MJVF2 KC2019 05 16ABRQ\+redacted;tQ*4tMb5ZI]]\fAm1._ZG\fxKS97'wdimI7aRL01
     C0MJVF2 KC2019 05 16#(oJn#Jt*Axqs=BL0yckv([C(^9?ylv\aPKJZ/E3ZrPWE:clickVL01
     C0MJVF2 |C2019 05 22b+,D@OhereLYhEX4u:OvDm!H(0m;EfEe9X'DdL?mRx5R0JM%y#IG807
     C0MJVF2 |C2019 05 22$r)i?xh+wjJ6R4fXS30+HbLjALGjML0o\.]Afor+'lu)x/IV=\@H807
     C0MJVF2 |C2019 05 22^]explanationd1'_7N*TFN#(\`JAAp$n%M$BcDk[/3bo$7yBkyJ807
     C0MJVF2  C2019 05 23.17821515 15 37.12 -21 20 38.5    ~5N57 20.9 GVNEOCPH01
     C0MJVF2  C2019 05 23.18247415 15 36.77 -21 20 35.8    ~5N57 21.0 GVNEOCPH01
     C0MJVF2  C2019 05 23.19459215 15 35.81 -21 20 28.4    ~5N57 21.0 GVNEOCPH01
     C0MJVF2  C2019 05 23.19918415 15 35.44 -21 20 25.6    ~5N57 21.2 GVNEOCPH01

Station data:
(807) Cerro Tololo Observatory, La Serena  (S30.169136 W70.805900)  Chile.
(E23) Arcadia  (S33.621199 E151.071190)  Australia/NSW.
(G96) Mt. Lemmon Survey  (N32.442754 W110.788720)  US/Arizona.  Observers T.
   A. Pruyne, B. M. Africano, E. J. Christensen, G. A. Farneth, D. C. Fuls,
   A. R. Gibbs, A. D. Grauer, H. Groeller, J. A. Johnson, R. A. Kowalski, S.
   M. Larson, G. J. Leonard, R. L. Seaman, F. C. Shelly. 1.5-m reflector +
   10K CCD.
(H01) Magdalena Ridge Observatory, Socorro  (N33.984833 W107.189333)  US/New
   Mexico.  Observers W. H. Ryan, E. V. Ryan. Measurer W. H. Ryan. 2.4-m
   f/8.9 reflector + CCD.
(I52) Steward Observatory, Mt. Lemmon Station  (N32.442547 W110.788920)
   US/Arizona.  Observers T. A. Pruyne, B. M. Africano, E. J. Christensen, G.
   A. Farneth, D. C. Fuls, A. R. Gibbs, A. D. Grauer, H. Groeller, J. A.
   Johnson, R. A. Kowalski, S. M. Larson, G. J. Leonard, R. L. Seaman, F. C.
   Shelly. 1.0-m reflector + CCD.
(L01) Višnjan Observatory, Tičan  (N45.290900 E13.749300)  Croatia.
   Observers K. Korlević, E. Pettarin. Measurer E. Pettarin. 1.0-m f/2.9
   reflector + CCD.

Orbital elements:  C0MJVF2
   Perihelion 2019 Mar 20.996529 +/- 0.0525 TT = 23:55:00 (JD 2458563.496529)
Epoch 2019 May 23.0 TT = JDT 2458626.5   Earth MOID: 0.0053   Ve: 0.0071
M  21.09067484 +/- 0.16             Ma: 0.0021                AutoNEOCP
n   0.33475417 +/- 0.00227          Peri.  107.05645 +/- 0.007
a   2.05424411 +/- 0.0093           Node    29.52911 +/- 0.008
e   0.7158152 +/- 0.00156           Incl.    0.97908 +/- 0.0017
P   2.94                   H 24.2   G  0.15   U  8.7  
q 0.58378477 +/- 0.000555    Q 3.52470345 +/- 0.019
From 32 observations 2019 May 14-23; mean residual 0".31
Residuals in arcseconds: 
190514 G96  .20-  .01-    190514 E23  .17+  .04-    190516 L01  .13-  .29-    
190514 G96  .19-  .00     190514 E23  .33+  .18+    190516 L01  .04-  .38+    
190514 G96  .07+  .38-    190514 E23  .60+  .86+    190516 L01  .20-  .19-    
190514 G96  1.3-  .12-    190515 I52  .33+  .12-    190522 807  .09-  .08-    
190514 H01  .06-  .11-    190515 I52  .36-  .24-    190522 807  .00   .42-    
190514 H01  .11+  .12-    190515 I52  .09+  .48-    190522 807  .03+  .08-    
190514 H01  .06+  .14-    190515 I52  .02-  .33-    190523 H01  .11+  .02+    
190514 H01  .01-  .14-    190516 G96  .54+  .01+    190523 H01  .06-  .13+    
190514 I52  .16+  .20+    190516 G96  .17+  .80+    190523 H01  .01+  .12+    
190514 I52  .10-  .17-    190516 G96  .05+  .49+    190523 H01  .03-  .09+    
190514 I52  .23+  .03+    190516 L01  .50-  .25-    

Ephemerides (geocentric):
Date (UTC) HH   RA              Dec         delta   r     elong  mag " sig PA
---- -- -- --  -------------   -----------  ------ ------ -----  --- ---- ---
2019 05 24 15  15 14 12.046   -21 05 39.96  .20987 1.2190 168.5 21.8 .078  31
2019 05 24 16  15 14 09.902   -21 05 17.26  .21040 1.2195 168.5 21.8 .079  32
2019 05 24 17  15 14 07.771   -21 04 54.67  .21092 1.2200 168.4 21.8 .080  33
2019 05 24 18  15 14 05.654   -21 04 32.19  .21144 1.2205 168.4 21.9 .081  34
2019 05 24 19  15 14 03.550   -21 04 09.82  .21197 1.2210 168.3 21.9 .082  35
2019 05 24 20  15 14 01.460   -21 03 47.56  .21249 1.2215 168.3 21.9 .083  36
2019 05 24 21  15 13 59.383   -21 03 25.40  .21302 1.2220 168.2 21.9 .084  37
2019 05 24 22  15 13 57.320   -21 03 03.36  .21354 1.2225 168.2 21.9 .086  38
2019 05 24 23  15 13 55.269   -21 02 41.42  .21407 1.2230 168.1 21.9 .087  38
2019 05 25 00  15 13 53.232   -21 02 19.58  .21460 1.2235 168.1 21.9 .088  39
2019 05 25 01  15 13 51.208   -21 01 57.85  .21512 1.2240 168.0 21.9 .089  40
2019 05 25 02  15 13 49.196   -21 01 36.23  .21565 1.2245 168.0 21.9 .090  41
2019 05 25 03  15 13 47.198   -21 01 14.71  .21617 1.2250 167.9 21.9 .092  42
2019 05 25 04  15 13 45.212   -21 00 53.29  .21670 1.2255 167.9 21.9 .093  43
2019 05 25 05  15 13 43.239   -21 00 31.98  .21723 1.2260 167.8 21.9 .094  44
2019 05 25 06  15 13 41.278   -21 00 10.77  .21775 1.2265 167.8 21.9 .096  44
2019 05 25 07  15 13 39.331   -20 59 49.66  .21828 1.2270 167.8 22.0 .097  45
2019 05 25 08  15 13 37.395   -20 59 28.65  .21881 1.2275 167.7 22.0 .099  46
2019 05 25 09  15 13 35.472   -20 59 07.74  .21933 1.2280 167.7 22.0 .100  47
2019 05 25 10  15 13 33.562   -20 58 46.93  .21986 1.2285 167.6 22.0 .102  47
2019 05 25 11  15 13 31.664   -20 58 26.22  .22039 1.2290 167.6 22.0 .103  48
2019 05 25 12  15 13 29.777   -20 58 05.60  .22092 1.2294 167.5 22.0 .105  49
2019 05 25 13  15 13 27.904   -20 57 45.09  .22144 1.2299 167.5 22.0 .106  49
2019 05 25 14  15 13 26.042   -20 57 24.67  .22197 1.2304 167.4 22.0 .108  50
2019 05 25 15  15 13 24.192   -20 57 04.35  .22250 1.2309 167.4 22.0 .110  51
2019 05 25 16  15 13 22.354   -20 56 44.13  .22303 1.2314 167.3 22.0 .111  52
2019 05 25 17  15 13 20.528   -20 56 24.00  .22356 1.2319 167.3 22.0 .113  52
2019 05 25 18  15 13 18.713   -20 56 03.96  .22408 1.2324 167.2 22.0 .115  53
2019 05 25 19  15 13 16.911   -20 55 44.02  .22461 1.2329 167.2 22.0 .116  53
2019 05 25 20  15 13 15.120   -20 55 24.18  .22514 1.2334 167.2 22.0 .118  54
2019 05 25 21  15 13 13.341   -20 55 04.42  .22567 1.2339 167.1 22.1 .120  55
2019 05 25 22  15 13 11.573   -20 54 44.76  .22620 1.2344 167.1 22.1 .122  55
2019 05 25 23  15 13 09.817   -20 54 25.19  .22673 1.2349 167.0 22.1 .124  56
2019 05 26 00  15 13 08.072   -20 54 05.72  .22726 1.2354 167.0 22.1 .126  56
2019 05 26 01  15 13 06.338   -20 53 46.33  .22779 1.2359 166.9 22.1 .128  57
2019 05 26 02  15 13 04.616   -20 53 27.03  .22832 1.2364 166.9 22.1 .130  57
2019 05 26 03  15 13 02.905   -20 53 07.83  .22885 1.2369 166.8 22.1 .132  58
2019 05 26 04  15 13 01.205   -20 52 48.71  .22938 1.2374 166.8 22.1 .134  58
2019 05 26 05  15 12 59.516   -20 52 29.68  .22991 1.2379 166.7 22.1 .136  59
2019 05 26 06  15 12 57.839   -20 52 10.74  .23044 1.2384 166.7 22.1 .138  59
2019 05 26 07  15 12 56.172   -20 51 51.89  .23097 1.2388 166.6 22.1 .140  60
2019 05 26 08  15 12 54.516   -20 51 33.13  .23150 1.2393 166.6 22.1 .142  60
2019 05 26 09  15 12 52.871   -20 51 14.45  .23203 1.2398 166.6 22.1 .144  61
2019 05 26 10  15 12 51.237   -20 50 55.86  .23256 1.2403 166.5 22.1 .146  61
2019 05 26 11  15 12 49.614   -20 50 37.36  .23309 1.2408 166.5 22.2 .148  62
2019 05 26 12  15 12 48.001   -20 50 18.94  .23362 1.2413 166.4 22.2 .151  62
2019 05 26 13  15 12 46.399   -20 50 00.60  .23416 1.2418 166.4 22.2 .153  63
2019 05 26 14  15 12 44.808   -20 49 42.35  .23469 1.2423 166.3 22.2 .155  63